Year,Month,Day,Hour,Minute,Value (Times are PST for temperature in C)
2008,07,15,00,00,13.70
2008,07,15,00,01,13.60
2008,07,15,00,02,13.60
2008,07,15,00,03,13.60
2008,07,15,00,04,13.50
2008,07,15,00,05,13.50
2008,07,15,00,06,13.50
2008,07,15,00,07,13.40
2008,07,15,00,08,13.40
2008,07,15,00,09,13.40
2008,07,15,00,10,13.30
2008,07,15,00,11,13.30
2008,07,15,00,12,13.30
2008,07,15,00,13,13.30
2008,07,15,00,14,13.30
2008,07,15,00,15,13.30
2008,07,15,00,16,13.30
2008,07,15,00,17,13.30
2008,07,15,00,18,13.30
2008,07,15,00,19,13.30
2008,07,15,00,20,13.30
2008,07,15,00,21,13.30
2008,07,15,00,22,13.40
2008,07,15,00,23,13.40
2008,07,15,00,24,13.40
2008,07,15,00,25,13.50
2008,07,15,00,26,13.50
2008,07,15,00,27,13.60
2008,07,15,00,28,13.60
2008,07,15,00,29,13.60
2008,07,15,00,30,13.60
2008,07,15,00,31,13.50
2008,07,15,00,32,13.50
2008,07,15,00,33,13.40
2008,07,15,00,34,13.40
2008,07,15,00,35,13.40
2008,07,15,00,36,13.30
2008,07,15,00,37,13.30
2008,07,15,00,38,13.30
2008,07,15,00,39,13.30
2008,07,15,00,40,13.30
2008,07,15,00,41,13.20
2008,07,15,00,42,13.20
2008,07,15,00,43,13.20
2008,07,15,00,44,13.20
2008,07,15,00,45,13.10
2008,07,15,00,46,13.10
2008,07,15,00,47,13.10
2008,07,15,00,48,13.10
2008,07,15,00,49,13.20
2008,07,15,00,50,13.20
2008,07,15,00,51,13.20
2008,07,15,00,52,13.20
2008,07,15,00,53,13.20
2008,07,15,00,54,13.20
2008,07,15,00,55,13.10
2008,07,15,00,56,13.10
2008,07,15,00,57,13.10
2008,07,15,00,58,13.10
2008,07,15,00,59,13.10
2008,07,15,01,00,13.10
2008,07,15,01,01,13.10
2008,07,15,01,02,13.10
2008,07,15,01,03,13.10
2008,07,15,01,04,13.10
2008,07,15,01,05,13.10
2008,07,15,01,06,13.20
2008,07,15,01,07,13.20
2008,07,15,01,08,13.30
2008,07,15,01,09,13.30
2008,07,15,01,10,13.30
2008,07,15,01,11,13.40
2008,07,15,01,12,13.50
2008,07,15,01,13,13.50
2008,07,15,01,14,13.60
2008,07,15,01,15,13.60
2008,07,15,01,16,13.60
2008,07,15,01,17,13.70
2008,07,15,01,18,13.70
2008,07,15,01,19,13.70
2008,07,15,01,20,13.70
2008,07,15,01,21,13.70
2008,07,15,01,22,13.70
2008,07,15,01,23,13.70
2008,07,15,01,24,13.70
2008,07,15,01,25,13.70
2008,07,15,01,26,13.60
2008,07,15,01,27,13.60
2008,07,15,01,28,13.50
2008,07,15,01,29,13.50
2008,07,15,01,30,13.40
2008,07,15,01,31,13.40
2008,07,15,01,32,13.30
2008,07,15,01,33,13.30
2008,07,15,01,34,13.30
2008,07,15,01,35,13.30
2008,07,15,01,36,13.30
2008,07,15,01,37,13.30
2008,07,15,01,38,13.30
2008,07,15,01,39,13.30
2008,07,15,01,40,13.40
2008,07,15,01,41,13.40
2008,07,15,01,42,13.50
2008,07,15,01,43,13.50
2008,07,15,01,44,13.50
2008,07,15,01,45,13.50
2008,07,15,01,46,13.50
2008,07,15,01,47,13.50
2008,07,15,01,48,13.50
2008,07,15,01,49,13.40
2008,07,15,01,50,13.40
2008,07,15,01,51,13.40
2008,07,15,01,52,13.40
2008,07,15,01,53,13.40
2008,07,15,01,54,13.30
2008,07,15,01,55,13.30
2008,07,15,01,56,13.30
2008,07,15,01,57,13.30
2008,07,15,01,58,13.30
2008,07,15,01,59,13.30
2008,07,15,02,00,13.40
2008,07,15,02,01,13.40
2008,07,15,02,02,13.40
2008,07,15,02,03,13.50
2008,07,15,02,04,13.50
2008,07,15,02,05,13.50
2008,07,15,02,06,13.60
2008,07,15,02,07,13.60
2008,07,15,02,08,13.60
2008,07,15,02,09,13.50
2008,07,15,02,10,13.50
2008,07,15,02,11,13.40
2008,07,15,02,12,13.40
2008,07,15,02,13,13.30
2008,07,15,02,14,13.30
2008,07,15,02,15,13.20
2008,07,15,02,16,13.10
2008,07,15,02,17,13.00
2008,07,15,02,18,12.90
2008,07,15,02,19,12.90
2008,07,15,02,20,12.80
2008,07,15,02,21,12.80
2008,07,15,02,22,12.80
2008,07,15,02,23,12.70
2008,07,15,02,24,12.70
2008,07,15,02,25,12.70
2008,07,15,02,26,12.60
2008,07,15,02,27,12.60
2008,07,15,02,28,12.60
2008,07,15,02,29,12.50
2008,07,15,02,30,12.50
2008,07,15,02,31,12.50
2008,07,15,02,32,12.50
2008,07,15,02,33,12.50
2008,07,15,02,34,12.50
2008,07,15,02,35,12.50
2008,07,15,02,36,12.50
2008,07,15,02,37,12.40
2008,07,15,02,38,12.40
2008,07,15,02,39,12.30
2008,07,15,02,40,12.30
2008,07,15,02,41,12.30
2008,07,15,02,42,12.30
2008,07,15,02,43,12.20
2008,07,15,02,44,12.20
2008,07,15,02,45,12.20
2008,07,15,02,46,12.20
2008,07,15,02,47,12.30
2008,07,15,02,48,12.30
2008,07,15,02,49,12.30
2008,07,15,02,50,12.30
2008,07,15,02,51,12.30
2008,07,15,02,52,12.30
2008,07,15,02,53,12.20
2008,07,15,02,54,12.20
2008,07,15,02,55,12.20
2008,07,15,02,56,12.10
2008,07,15,02,57,12.10
2008,07,15,02,58,12.10
2008,07,15,02,59,12.00
2008,07,15,03,00,12.00
2008,07,15,03,01,12.00
2008,07,15,03,02,11.90
2008,07,15,03,03,11.90
2008,07,15,03,04,11.80
2008,07,15,03,05,11.80
2008,07,15,03,06,11.80
2008,07,15,03,07,11.80
2008,07,15,03,08,11.80
2008,07,15,03,09,11.80
2008,07,15,03,10,11.70
2008,07,15,03,11,11.70
2008,07,15,03,12,11.70
2008,07,15,03,13,11.70
2008,07,15,03,14,11.60
2008,07,15,03,15,11.60
2008,07,15,03,16,11.60
2008,07,15,03,17,11.60
2008,07,15,03,18,11.60
2008,07,15,03,19,11.60
2008,07,15,03,20,11.60
2008,07,15,03,21,11.60
2008,07,15,03,22,11.40
2008,07,15,03,23,11.40
2008,07,15,03,24,11.40
2008,07,15,03,25,11.40
2008,07,15,03,26,11.40
2008,07,15,03,27,11.40
2008,07,15,03,28,11.40
2008,07,15,03,29,11.40
2008,07,15,03,30,11.40
2008,07,15,03,31,11.40
2008,07,15,03,32,11.40
2008,07,15,03,33,11.30
2008,07,15,03,34,11.30
2008,07,15,03,35,11.30
2008,07,15,03,36,11.30
2008,07,15,03,37,11.30
2008,07,15,03,38,11.20
2008,07,15,03,39,11.20
2008,07,15,03,40,11.20
2008,07,15,03,41,11.20
2008,07,15,03,42,11.20
2008,07,15,03,43,11.20
2008,07,15,03,44,11.20
2008,07,15,03,45,11.10
2008,07,15,03,46,11.10
2008,07,15,03,47,11.10
2008,07,15,03,48,11.10
2008,07,15,03,49,11.10
2008,07,15,03,50,11.10
2008,07,15,03,51,11.10
2008,07,15,03,52,11.10
2008,07,15,03,53,11.10
2008,07,15,03,54,11.10
2008,07,15,03,55,11.10
2008,07,15,03,56,10.90
2008,07,15,03,57,10.90
2008,07,15,03,58,10.90
2008,07,15,03,59,10.90
2008,07,15,04,00,10.90
2008,07,15,04,01,10.90
2008,07,15,04,02,10.90
2008,07,15,04,03,10.90
2008,07,15,04,04,10.90
2008,07,15,04,05,10.90
2008,07,15,04,06,10.90
2008,07,15,04,07,10.90
2008,07,15,04,08,10.90
2008,07,15,04,09,10.90
2008,07,15,04,10,10.90
2008,07,15,04,11,10.90
2008,07,15,04,12,10.80
2008,07,15,04,13,10.80
2008,07,15,04,14,10.80
2008,07,15,04,15,10.80
2008,07,15,04,16,10.80
2008,07,15,04,17,10.80
2008,07,15,04,18,10.80
2008,07,15,04,19,10.80
2008,07,15,04,20,10.80
2008,07,15,04,21,10.70
2008,07,15,04,22,10.70
2008,07,15,04,23,10.70
2008,07,15,04,24,10.70
2008,07,15,04,25,10.60
2008,07,15,04,26,10.60
2008,07,15,04,27,10.60
2008,07,15,04,28,10.60
2008,07,15,04,29,10.60
2008,07,15,04,30,10.60
2008,07,15,04,31,10.60
2008,07,15,04,32,10.60
2008,07,15,04,33,10.60
2008,07,15,04,34,10.60
2008,07,15,04,35,10.60
2008,07,15,04,36,10.60
2008,07,15,04,37,10.60
2008,07,15,04,38,10.60
2008,07,15,04,39,10.60
2008,07,15,04,40,10.60
2008,07,15,04,41,10.50
2008,07,15,04,42,10.40
2008,07,15,04,43,10.40
2008,07,15,04,44,10.40
2008,07,15,04,45,10.40
2008,07,15,04,46,10.40
2008,07,15,04,47,10.40
2008,07,15,04,48,10.40
2008,07,15,04,49,10.40
2008,07,15,04,50,10.40
2008,07,15,04,51,10.40
2008,07,15,04,52,10.30
2008,07,15,04,53,10.30
2008,07,15,04,54,10.30
2008,07,15,04,55,10.30
2008,07,15,04,56,10.20
2008,07,15,04,57,10.20
2008,07,15,04,58,10.20
2008,07,15,04,59,10.10
2008,07,15,05,00,10.10
2008,07,15,05,01,10.10
2008,07,15,05,02,10.10
2008,07,15,05,03,10.10
2008,07,15,05,04,10.10
2008,07,15,05,05,10.10
2008,07,15,05,06,10.10
2008,07,15,05,07,10.10
2008,07,15,05,08,10.10
2008,07,15,05,09,10.10
2008,07,15,05,10,10.10
2008,07,15,05,11,10.10
2008,07,15,05,12,10.10
2008,07,15,05,13,10.10
2008,07,15,05,14,10.10
2008,07,15,05,15,10.10
2008,07,15,05,16,10.10
2008,07,15,05,17,10.10
2008,07,15,05,18,10.10
2008,07,15,05,19,10.10
2008,07,15,05,20,10.10
2008,07,15,05,21,10.10
2008,07,15,05,22,10.10
2008,07,15,05,23,10.10
2008,07,15,05,24,10.10
2008,07,15,05,25,10.10
2008,07,15,05,26,10.00
2008,07,15,05,27,9.90
2008,07,15,05,28,9.90
2008,07,15,05,29,9.90
2008,07,15,05,30,9.90
2008,07,15,05,31,9.90
2008,07,15,05,32,9.90
2008,07,15,05,33,9.90
2008,07,15,05,34,9.90
2008,07,15,05,35,9.90
2008,07,15,05,36,9.90
2008,07,15,05,37,9.90
2008,07,15,05,38,9.90
2008,07,15,05,39,10.00
2008,07,15,05,40,10.10
2008,07,15,05,41,10.10
2008,07,15,05,42,10.10
2008,07,15,05,43,10.10
2008,07,15,05,44,10.10
2008,07,15,05,45,10.10
2008,07,15,05,46,10.10
2008,07,15,05,47,10.10
2008,07,15,05,48,10.10
2008,07,15,05,49,10.10
2008,07,15,05,50,9.90
2008,07,15,05,51,9.90
2008,07,15,05,52,9.90
2008,07,15,05,53,9.90
2008,07,15,05,54,9.90
2008,07,15,05,55,9.90
2008,07,15,05,56,9.90
2008,07,15,05,57,9.90
2008,07,15,05,58,9.90
2008,07,15,05,59,9.90
2008,07,15,06,00,9.90
2008,07,15,06,01,9.90
2008,07,15,06,02,9.90
2008,07,15,06,03,9.90
2008,07,15,06,04,9.90
2008,07,15,06,05,9.90
2008,07,15,06,06,9.90
2008,07,15,06,07,9.90
2008,07,15,06,08,9.90
2008,07,15,06,09,9.90
2008,07,15,06,10,9.90
2008,07,15,06,11,10.00
2008,07,15,06,12,10.10
2008,07,15,06,13,10.10
2008,07,15,06,14,10.10
2008,07,15,06,15,10.10
2008,07,15,06,16,10.10
2008,07,15,06,17,10.10
2008,07,15,06,18,10.10
2008,07,15,06,19,10.10
2008,07,15,06,20,10.20
2008,07,15,06,21,10.20
2008,07,15,06,22,10.20
2008,07,15,06,23,10.30
2008,07,15,06,24,10.30
2008,07,15,06,25,10.30
2008,07,15,06,26,10.30
2008,07,15,06,27,10.30
2008,07,15,06,28,10.30
2008,07,15,06,29,10.30
2008,07,15,06,30,10.30
2008,07,15,06,31,10.30
2008,07,15,06,32,10.40
2008,07,15,06,33,10.40
2008,07,15,06,34,10.40
2008,07,15,06,35,10.40
2008,07,15,06,36,10.40
2008,07,15,06,37,10.40
2008,07,15,06,38,10.40
2008,07,15,06,39,10.40
2008,07,15,06,40,10.40
2008,07,15,06,41,10.40
2008,07,15,06,42,10.40
2008,07,15,06,43,10.60
2008,07,15,06,44,10.60
2008,07,15,06,45,10.60
2008,07,15,06,46,10.60
2008,07,15,06,47,10.60
2008,07,15,06,48,10.70
2008,07,15,06,49,10.70
2008,07,15,06,50,10.80
2008,07,15,06,51,10.90
2008,07,15,06,52,11.00
2008,07,15,06,53,11.10
2008,07,15,06,54,11.20
2008,07,15,06,55,11.30
2008,07,15,06,56,11.40
2008,07,15,06,57,11.40
2008,07,15,06,58,11.40
2008,07,15,06,59,11.40
2008,07,15,07,00,11.50
2008,07,15,07,01,11.60
2008,07,15,07,02,11.60
2008,07,15,07,03,11.60
2008,07,15,07,04,11.60
2008,07,15,07,05,11.40
2008,07,15,07,06,11.40
2008,07,15,07,07,11.40
2008,07,15,07,08,11.40
2008,07,15,07,09,11.40
2008,07,15,07,10,11.40
2008,07,15,07,11,11.40
2008,07,15,07,12,11.40
2008,07,15,07,13,11.40
2008,07,15,07,14,11.60
2008,07,15,07,15,11.60
2008,07,15,07,16,11.60
2008,07,15,07,17,11.60
2008,07,15,07,18,11.60
2008,07,15,07,19,11.70
2008,07,15,07,20,11.70
2008,07,15,07,21,11.80
2008,07,15,07,22,11.80
2008,07,15,07,23,11.80
2008,07,15,07,24,11.90
2008,07,15,07,25,12.00
2008,07,15,07,26,12.00
2008,07,15,07,27,12.00
2008,07,15,07,28,12.10
2008,07,15,07,29,12.10
2008,07,15,07,30,12.20
2008,07,15,07,31,12.30
2008,07,15,07,32,12.30
2008,07,15,07,33,12.40
2008,07,15,07,34,12.50
2008,07,15,07,35,12.50
2008,07,15,07,36,12.60
2008,07,15,07,37,12.80
2008,07,15,07,38,12.90
2008,07,15,07,39,13.00
2008,07,15,07,40,13.10
2008,07,15,07,41,13.30
2008,07,15,07,42,13.40
2008,07,15,07,43,13.50
2008,07,15,07,44,13.60
2008,07,15,07,45,13.70
2008,07,15,07,46,13.80
2008,07,15,07,47,13.90
2008,07,15,07,48,13.90
2008,07,15,07,49,14.00
2008,07,15,07,50,14.10
2008,07,15,07,51,14.20
2008,07,15,07,52,14.20
2008,07,15,07,53,14.30
2008,07,15,07,54,14.40
2008,07,15,07,55,14.50
2008,07,15,07,56,14.60
2008,07,15,07,57,14.60
2008,07,15,07,58,14.70
2008,07,15,07,59,14.80
2008,07,15,08,00,14.80
2008,07,15,08,01,14.90
2008,07,15,08,02,14.90
2008,07,15,08,03,15.00
2008,07,15,08,04,15.10
2008,07,15,08,05,15.10
2008,07,15,08,06,15.20
2008,07,15,08,07,15.30
2008,07,15,08,08,15.40
2008,07,15,08,09,15.50
2008,07,15,08,10,15.60
2008,07,15,08,11,15.80
2008,07,15,08,12,15.90
2008,07,15,08,13,16.00
2008,07,15,08,14,16.10
2008,07,15,08,15,16.10
2008,07,15,08,16,16.10
2008,07,15,08,17,16.10
2008,07,15,08,18,16.20
2008,07,15,08,19,16.20
2008,07,15,08,20,16.30
2008,07,15,08,21,16.40
2008,07,15,08,22,16.40
2008,07,15,08,23,16.40
2008,07,15,08,24,16.40
2008,07,15,08,25,16.40
2008,07,15,08,26,16.40
2008,07,15,08,27,16.40
2008,07,15,08,28,16.40
2008,07,15,08,29,16.50
2008,07,15,08,30,16.60
2008,07,15,08,31,16.60
2008,07,15,08,32,16.50
2008,07,15,08,33,16.40
2008,07,15,08,34,16.40
2008,07,15,08,35,16.40
2008,07,15,08,36,16.30
2008,07,15,08,37,16.30
2008,07,15,08,38,16.20
2008,07,15,08,39,16.20
2008,07,15,08,40,16.20
2008,07,15,08,41,16.20
2008,07,15,08,42,16.30
2008,07,15,08,43,16.40
2008,07,15,08,44,16.40
2008,07,15,08,45,16.40
2008,07,15,08,46,16.40
2008,07,15,08,47,16.40
2008,07,15,08,48,16.40
2008,07,15,08,49,16.40
2008,07,15,08,50,16.50
2008,07,15,08,51,16.40
2008,07,15,08,52,16.40
2008,07,15,08,53,16.30
2008,07,15,08,54,16.30
2008,07,15,08,55,16.30
2008,07,15,08,56,16.40
2008,07,15,08,57,16.40
2008,07,15,08,58,16.40
2008,07,15,08,59,16.40
2008,07,15,09,00,16.50
2008,07,15,09,01,16.60
2008,07,15,09,02,16.60
2008,07,15,09,03,16.70
2008,07,15,09,04,16.70
2008,07,15,09,05,16.70
2008,07,15,09,06,16.70
2008,07,15,09,07,16.70
2008,07,15,09,08,16.90
2008,07,15,09,09,17.00
2008,07,15,09,10,17.10
2008,07,15,09,11,17.20
2008,07,15,09,12,17.30
2008,07,15,09,13,17.40
2008,07,15,09,14,17.50
2008,07,15,09,15,17.70
2008,07,15,09,16,17.80
2008,07,15,09,17,17.90
2008,07,15,09,18,18.00
2008,07,15,09,19,18.10
2008,07,15,09,20,18.20
2008,07,15,09,21,18.30
2008,07,15,09,22,18.40
2008,07,15,09,23,18.50
2008,07,15,09,24,18.50
2008,07,15,09,25,18.60
2008,07,15,09,26,18.60
2008,07,15,09,27,18.60
2008,07,15,09,28,18.50
2008,07,15,09,29,18.40
2008,07,15,09,30,18.20
2008,07,15,09,31,18.10
2008,07,15,09,32,18.00
2008,07,15,09,33,17.90
2008,07,15,09,34,17.90
2008,07,15,09,35,17.90
2008,07,15,09,36,17.90
2008,07,15,09,37,17.80
2008,07,15,09,38,17.80
2008,07,15,09,39,17.70
2008,07,15,09,40,17.80
2008,07,15,09,41,17.70
2008,07,15,09,42,17.70
2008,07,15,09,43,17.70
2008,07,15,09,44,17.60
2008,07,15,09,45,17.60
2008,07,15,09,46,17.60
2008,07,15,09,47,17.60
2008,07,15,09,48,17.60
2008,07,15,09,49,17.50
2008,07,15,09,50,17.60
2008,07,15,09,51,17.70
2008,07,15,09,52,17.80
2008,07,15,09,53,17.90
2008,07,15,09,54,18.10
2008,07,15,09,55,18.20
2008,07,15,09,56,18.40
2008,07,15,09,57,18.50
2008,07,15,09,58,18.50
2008,07,15,09,59,18.50
2008,07,15,10,00,18.60
2008,07,15,10,01,18.60
2008,07,15,10,02,18.80
2008,07,15,10,03,18.70
2008,07,15,10,04,18.60
2008,07,15,10,05,18.50
2008,07,15,10,06,18.50
2008,07,15,10,07,18.40
2008,07,15,10,08,18.40
2008,07,15,10,09,18.40
2008,07,15,10,10,18.40
2008,07,15,10,11,18.40
2008,07,15,10,12,18.50
2008,07,15,10,13,18.60
2008,07,15,10,14,18.70
2008,07,15,10,15,18.70
2008,07,15,10,16,18.80
2008,07,15,10,17,18.80
2008,07,15,10,18,18.90
2008,07,15,10,19,18.90
2008,07,15,10,20,18.90
2008,07,15,10,21,18.90
2008,07,15,10,22,18.90
2008,07,15,10,23,18.90
2008,07,15,10,24,19.10
2008,07,15,10,25,19.10
2008,07,15,10,26,19.10
2008,07,15,10,27,19.20
2008,07,15,10,28,19.40
2008,07,15,10,29,19.40
2008,07,15,10,30,19.50
2008,07,15,10,31,19.60
2008,07,15,10,32,19.60
2008,07,15,10,33,19.60
2008,07,15,10,34,19.50
2008,07,15,10,35,19.40
2008,07,15,10,36,19.40
2008,07,15,10,37,19.40
2008,07,15,10,38,19.40
2008,07,15,10,39,19.40
2008,07,15,10,40,19.30
2008,07,15,10,41,19.30
2008,07,15,10,42,19.40
2008,07,15,10,43,19.40
2008,07,15,10,44,19.50
2008,07,15,10,45,19.70
2008,07,15,10,46,19.80
2008,07,15,10,47,19.90
2008,07,15,10,48,19.90
2008,07,15,10,49,19.90
2008,07,15,10,50,19.90
2008,07,15,10,51,19.80
2008,07,15,10,52,19.60
2008,07,15,10,53,19.40
2008,07,15,10,54,19.10
2008,07,15,10,55,19.10
2008,07,15,10,56,19.10
2008,07,15,10,57,19.10
2008,07,15,10,58,19.20
2008,07,15,10,59,19.30
2008,07,15,11,00,19.30
2008,07,15,11,01,19.40
2008,07,15,11,02,19.40
2008,07,15,11,03,19.30
2008,07,15,11,04,19.30
2008,07,15,11,05,19.10
2008,07,15,11,06,19.10
2008,07,15,11,07,19.10
2008,07,15,11,08,19.10
2008,07,15,11,09,18.90
2008,07,15,11,10,19.00
2008,07,15,11,11,19.10
2008,07,15,11,12,19.10
2008,07,15,11,13,19.20
2008,07,15,11,14,19.30
2008,07,15,11,15,19.30
2008,07,15,11,16,19.10
2008,07,15,11,17,19.10
2008,07,15,11,18,19.10
2008,07,15,11,19,19.10
2008,07,15,11,20,19.10
2008,07,15,11,21,19.10
2008,07,15,11,22,19.30
2008,07,15,11,23,19.40
2008,07,15,11,24,19.50
2008,07,15,11,25,19.60
2008,07,15,11,26,19.70
2008,07,15,11,27,19.70
2008,07,15,11,28,19.70
2008,07,15,11,29,19.60
2008,07,15,11,30,19.60
2008,07,15,11,31,19.60
2008,07,15,11,32,19.70
2008,07,15,11,33,19.60
2008,07,15,11,34,19.70
2008,07,15,11,35,19.70
2008,07,15,11,36,19.80
2008,07,15,11,37,19.90
2008,07,15,11,38,19.90
2008,07,15,11,39,19.90
2008,07,15,11,40,19.80
2008,07,15,11,41,19.70
2008,07,15,11,42,19.60
2008,07,15,11,43,19.60
2008,07,15,11,44,19.50
2008,07,15,11,45,19.50
2008,07,15,11,46,19.50
2008,07,15,11,47,19.60
2008,07,15,11,48,19.60
2008,07,15,11,49,19.70
2008,07,15,11,50,19.70
2008,07,15,11,51,19.80
2008,07,15,11,52,19.90
2008,07,15,11,53,19.90
2008,07,15,11,54,20.00
2008,07,15,11,55,20.10
2008,07,15,11,56,20.10
2008,07,15,11,57,19.90
2008,07,15,11,58,19.90
2008,07,15,11,59,19.90
2008,07,15,12,00,19.90
2008,07,15,12,01,19.90
2008,07,15,12,02,19.90
2008,07,15,12,03,19.90
2008,07,15,12,04,19.70
2008,07,15,12,05,19.60
2008,07,15,12,06,19.60
2008,07,15,12,07,19.50
2008,07,15,12,08,19.50
2008,07,15,12,09,19.50
2008,07,15,12,10,19.30
2008,07,15,12,11,19.30
2008,07,15,12,12,19.30
2008,07,15,12,13,19.30
2008,07,15,12,14,19.30
2008,07,15,12,15,19.50
2008,07,15,12,16,19.60
2008,07,15,12,17,19.70
2008,07,15,12,18,19.80
2008,07,15,12,19,19.90
2008,07,15,12,20,20.00
2008,07,15,12,21,20.10
2008,07,15,12,22,20.00
2008,07,15,12,23,19.90
2008,07,15,12,24,19.90
2008,07,15,12,25,19.80
2008,07,15,12,26,19.80
2008,07,15,12,27,19.70
2008,07,15,12,28,19.70
2008,07,15,12,29,19.70
2008,07,15,12,30,19.80
2008,07,15,12,31,19.90
2008,07,15,12,32,20.10
2008,07,15,12,33,20.20
2008,07,15,12,34,20.10
2008,07,15,12,35,19.90
2008,07,15,12,36,19.80
2008,07,15,12,37,19.80
2008,07,15,12,38,19.70
2008,07,15,12,39,19.70
2008,07,15,12,40,19.70
2008,07,15,12,41,19.70
2008,07,15,12,42,19.80
2008,07,15,12,43,19.90
2008,07,15,12,44,20.00
2008,07,15,12,45,19.90
2008,07,15,12,46,19.80
2008,07,15,12,47,19.80
2008,07,15,12,48,19.80
2008,07,15,12,49,19.90
2008,07,15,12,50,20.00
2008,07,15,12,51,20.20
2008,07,15,12,52,20.30
2008,07,15,12,53,20.30
2008,07,15,12,54,20.40
2008,07,15,12,55,20.40
2008,07,15,12,56,20.30
2008,07,15,12,57,20.30
2008,07,15,12,58,20.20
2008,07,15,12,59,20.10
2008,07,15,13,00,20.00
2008,07,15,13,01,19.90
2008,07,15,13,02,19.90
2008,07,15,13,03,19.90
2008,07,15,13,04,19.90
2008,07,15,13,05,20.20
2008,07,15,13,06,20.40
2008,07,15,13,07,20.40
2008,07,15,13,08,20.50
2008,07,15,13,09,20.60
2008,07,15,13,10,20.70
2008,07,15,13,11,20.50
2008,07,15,13,12,20.40
2008,07,15,13,13,20.30
2008,07,15,13,14,20.20
2008,07,15,13,15,20.20
2008,07,15,13,16,20.20
2008,07,15,13,17,20.10
2008,07,15,13,18,20.10
2008,07,15,13,19,20.20
2008,07,15,13,20,20.10
2008,07,15,13,21,20.10
2008,07,15,13,22,20.10
2008,07,15,13,23,20.10
2008,07,15,13,24,20.20
2008,07,15,13,25,20.20
2008,07,15,13,26,20.20
2008,07,15,13,27,20.30
2008,07,15,13,28,20.30
2008,07,15,13,29,20.30
2008,07,15,13,30,20.50
2008,07,15,13,31,20.60
2008,07,15,13,32,20.70
2008,07,15,13,33,20.70
2008,07,15,13,34,20.80
2008,07,15,13,35,20.80
2008,07,15,13,36,21.00
2008,07,15,13,37,21.10
2008,07,15,13,38,21.20
2008,07,15,13,39,21.20
2008,07,15,13,40,21.10
2008,07,15,13,41,20.90
2008,07,15,13,42,20.80
2008,07,15,13,43,20.50
2008,07,15,13,44,20.50
2008,07,15,13,45,20.50
2008,07,15,13,46,20.70
2008,07,15,13,47,20.80
2008,07,15,13,48,20.80
2008,07,15,13,49,20.80
2008,07,15,13,50,21.00
2008,07,15,13,51,21.10
2008,07,15,13,52,21.20
2008,07,15,13,53,21.10
2008,07,15,13,54,21.00
2008,07,15,13,55,20.90
2008,07,15,13,56,20.80
2008,07,15,13,57,20.70
2008,07,15,13,58,20.80
2008,07,15,13,59,20.90
2008,07,15,14,00,21.00
2008,07,15,14,01,21.10
2008,07,15,14,02,21.10
2008,07,15,14,03,21.00
2008,07,15,14,04,20.90
2008,07,15,14,05,20.90
2008,07,15,14,06,21.00
2008,07,15,14,07,21.00
2008,07,15,14,08,21.10
2008,07,15,14,09,21.00
2008,07,15,14,10,21.00
2008,07,15,14,11,21.00
2008,07,15,14,12,21.00
2008,07,15,14,13,20.90
2008,07,15,14,14,20.70
2008,07,15,14,15,20.70
2008,07,15,14,16,20.60
2008,07,15,14,17,20.50
2008,07,15,14,18,20.40
2008,07,15,14,19,20.40
2008,07,15,14,20,20.50
2008,07,15,14,21,20.50
2008,07,15,14,22,20.50
2008,07,15,14,23,20.50
2008,07,15,14,24,20.70
2008,07,15,14,25,20.80
2008,07,15,14,26,20.80
2008,07,15,14,27,21.00
2008,07,15,14,28,21.10
2008,07,15,14,29,21.00
2008,07,15,14,30,21.00
2008,07,15,14,31,20.90
2008,07,15,14,32,20.60
2008,07,15,14,33,20.30
2008,07,15,14,34,20.20
2008,07,15,14,35,20.20
2008,07,15,14,36,20.30
2008,07,15,14,37,20.30
2008,07,15,14,38,20.40
2008,07,15,14,39,20.40
2008,07,15,14,40,20.30
2008,07,15,14,41,20.30
2008,07,15,14,42,20.10
2008,07,15,14,43,19.90
2008,07,15,14,44,19.80
2008,07,15,14,45,19.70
2008,07,15,14,46,19.60
2008,07,15,14,47,19.60
2008,07,15,14,48,19.40
2008,07,15,14,49,19.40
2008,07,15,14,50,19.20
2008,07,15,14,51,19.10
2008,07,15,14,52,19.20
2008,07,15,14,53,19.30
2008,07,15,14,54,19.40
2008,07,15,14,55,19.60
2008,07,15,14,56,19.70
2008,07,15,14,57,19.80
2008,07,15,14,58,19.70
2008,07,15,14,59,19.60
2008,07,15,15,00,19.50
2008,07,15,15,01,19.60
2008,07,15,15,02,19.60
2008,07,15,15,03,19.70
2008,07,15,15,04,19.80
2008,07,15,15,05,19.70
2008,07,15,15,06,19.50
2008,07,15,15,07,19.20
2008,07,15,15,08,19.00
2008,07,15,15,09,18.90
2008,07,15,15,10,18.80
2008,07,15,15,11,18.60
2008,07,15,15,12,18.50
2008,07,15,15,13,18.30
2008,07,15,15,14,18.20
2008,07,15,15,15,18.20
2008,07,15,15,16,18.20
2008,07,15,15,17,18.20
2008,07,15,15,18,18.20
2008,07,15,15,19,18.50
2008,07,15,15,20,18.60
2008,07,15,15,21,18.90
2008,07,15,15,22,18.90
2008,07,15,15,23,19.00
2008,07,15,15,24,19.00
2008,07,15,15,25,18.90
2008,07,15,15,26,18.70
2008,07,15,15,27,18.60
2008,07,15,15,28,18.70
2008,07,15,15,29,18.70
2008,07,15,15,30,18.80
2008,07,15,15,31,18.80
2008,07,15,15,32,18.90
2008,07,15,15,33,18.90
2008,07,15,15,34,18.90
2008,07,15,15,35,18.90
2008,07,15,15,36,18.80
2008,07,15,15,37,18.70
2008,07,15,15,38,18.80
2008,07,15,15,39,18.90
2008,07,15,15,40,19.00
2008,07,15,15,41,19.10
2008,07,15,15,42,19.30
2008,07,15,15,43,19.50
2008,07,15,15,44,19.60
2008,07,15,15,45,19.70
2008,07,15,15,46,19.80
2008,07,15,15,47,19.70
2008,07,15,15,48,19.60
2008,07,15,15,49,19.40
2008,07,15,15,50,19.30
2008,07,15,15,51,19.30
2008,07,15,15,52,19.30
2008,07,15,15,53,19.40
2008,07,15,15,54,19.40
2008,07,15,15,55,19.60
2008,07,15,15,56,19.60
2008,07,15,15,57,19.70
2008,07,15,15,58,19.70
2008,07,15,15,59,19.70
2008,07,15,16,00,19.60
2008,07,15,16,01,19.70
2008,07,15,16,02,19.60
2008,07,15,16,03,19.60
2008,07,15,16,04,19.70
2008,07,15,16,05,19.70
2008,07,15,16,06,19.80
2008,07,15,16,07,19.80
2008,07,15,16,08,19.80
2008,07,15,16,09,19.80
2008,07,15,16,10,19.90
2008,07,15,16,11,20.10
2008,07,15,16,12,20.20
2008,07,15,16,13,20.30
2008,07,15,16,14,20.20
2008,07,15,16,15,20.10
2008,07,15,16,16,19.90
2008,07,15,16,17,19.80
2008,07,15,16,18,19.70
2008,07,15,16,19,19.70
2008,07,15,16,20,19.60
2008,07,15,16,21,19.50
2008,07,15,16,22,19.20
2008,07,15,16,23,19.00
2008,07,15,16,24,18.90
2008,07,15,16,25,18.90
2008,07,15,16,26,19.00
2008,07,15,16,27,18.90
2008,07,15,16,28,18.90
2008,07,15,16,29,18.90
2008,07,15,16,30,18.80
2008,07,15,16,31,18.70
2008,07,15,16,32,18.80
2008,07,15,16,33,18.90
2008,07,15,16,34,18.90
2008,07,15,16,35,19.10
2008,07,15,16,36,19.20
2008,07,15,16,37,19.10
2008,07,15,16,38,19.10
2008,07,15,16,39,19.10
2008,07,15,16,40,19.10
2008,07,15,16,41,19.10
2008,07,15,16,42,19.20
2008,07,15,16,43,19.10
2008,07,15,16,44,19.10
2008,07,15,16,45,19.10
2008,07,15,16,46,19.10
2008,07,15,16,47,19.20
2008,07,15,16,48,19.20
2008,07,15,16,49,19.10
2008,07,15,16,50,19.20
2008,07,15,16,51,19.30
2008,07,15,16,52,19.40
2008,07,15,16,53,19.60
2008,07,15,16,54,19.70
2008,07,15,16,55,19.90
2008,07,15,16,56,19.90
2008,07,15,16,57,19.90
2008,07,15,16,58,20.10
2008,07,15,16,59,20.10
2008,07,15,17,00,20.00
2008,07,15,17,01,20.00
2008,07,15,17,02,20.10
2008,07,15,17,03,20.10
2008,07,15,17,04,20.10
2008,07,15,17,05,19.90
2008,07,15,17,06,19.90
2008,07,15,17,07,19.90
2008,07,15,17,08,19.90
2008,07,15,17,09,19.80
2008,07,15,17,10,19.80
2008,07,15,17,11,19.80
2008,07,15,17,12,19.90
2008,07,15,17,13,19.90
2008,07,15,17,14,20.00
2008,07,15,17,15,20.20
2008,07,15,17,16,20.30
2008,07,15,17,17,20.40
2008,07,15,17,18,20.50
2008,07,15,17,19,20.50
2008,07,15,17,20,20.70